Regional Weather Roundup
Issued by NWS

Home | Current Version | Previous Version | Graphics & Text | Print | Product List | Glossary On
Versions: 1 2 3 4 5 6 7 8 9 10 11 12 13 14 15 16 17 18 19 20 21 22 23 24 25 26 27 28 29 30 31 32 33 34 35 36 37 38 39 40 41 42 43 44 45 46 47 48 49 50
132
ASUS43 KFSD 302202
RWRSD

WEATHER ROUNDUP FOR SOUTH DAKOTA
NATIONAL WEATHER SERVICE SIOUX FALLS SD
500 PM CDT SAT APR 30 2016

NOTE: "FAIR" INDICATES FEW OR NO CLOUDS BELOW 12,000 FEET WITH NO
SIGNIFICANT WEATHER AND/OR OBSTRUCTIONS TO VISIBILITY.


SDZ001>005-009-010-012>017-302300-
NORTHWEST AND NORTH CENTRAL SOUTH DAKOTA

CITY           SKY/WX    TMP DP  RH WIND       PRES   REMARKS
BUFFALO          N/A     55  31  39 NE18G29   30.10S
FAITH            N/A     56  29  35 NE23G33   30.09S
MOBRIDGE       CLOUDY    60  32  34 NE20G32   30.09R
$$

SDZ012>016-024>037-041>051-057-063-072>074-302300-
SOUTHWEST AND SOUTH CENTRAL SOUTH DAKOTA

CITY           SKY/WX    TMP DP  RH WIND       PRES   REMARKS
RAPID CTY ARPT CLOUDY    51  32  48 NE22G30   30.09S
PIERRE         CLOUDY    54  36  50 NE24G32   30.03S
CUSTER         CLOUDY    37  28  70 N12G21    30.07S
ELLSWORTH AFB  CLOUDY    51  31  46 NE21      30.09S
PHILIP         CLOUDY    53  32  44 NE23G36   30.06R
PINE RIDGE     LGT RAIN  45  32  60 N18G31    30.02R
WINNER         LGT RAIN  43  39  86 NE29G36   29.98S FOG
$$

SDZ004>011-016>023-039-040-302300-
NORTHEAST SOUTH DAKOTA

CITY           SKY/WX    TMP DP  RH WIND       PRES   REMARKS
ABERDEEN       CLOUDY    60  34  37 NE22G29   30.08R
WATERTOWN      CLOUDY    53  34  48 NE20G33   30.02S
BROOKINGS      CLOUDY    50  35  56 NE17G28   29.98R
SISSETON         N/A     59  33  37 E20G29    30.06S
$$

SDZ017-020-022-023-036>040-048>070-302300-
SOUTHEAST SOUTH DAKOTA

CITY           SKY/WX    TMP DP  RH WIND       PRES   REMARKS
SIOUX FALLS    CLOUDY    45  39  79 E24G31    29.95R
HURON          CLOUDY    51  36  56 NE17G29   30.02R
MITCHELL       LGT RAIN  46  42  86 NE18      29.99R
YANKTON        CLOUDY    45  41  87 NE23G30   29.88R
$$

ABBREVIATIONS USED IN REMARKS
   TC - TEMPERATURE IN CELSIUS
  WCI - WIND CHILL INDEX
   HX - HEAT INDEX
  VSB - VISIBILITY





USA.gov is the U.S. government's official web portal to all federal, state and local government web resources and services.